User: anonymous
Location: Goodsell Observatory
(44.4617°N, 93.1522°W)
Time: 16:23:23
(UTC-05:00)
Language:

HST - Orbit

View from above orbital plane
View from above orbital plane
View from above satellite
View from above satellite

Ground track
Ground track

The orbit data is extracted from the following two-line orbital elements,

1 20580U 90037B   14106.34120566  .00002598  00000-0  16594-3 0  4822
2 20580 028.4703 083.6290 0003166 348.0466 127.4350 15.05175029115392
Epoch (UTC): 16 April 2014 08:11:20
Eccentricity: 0.0003166
inclination: 28.4703°
perigee height: 549 km
apogee height: 553 km
right ascension of ascending node: 83.6290°
argument of perigee: 348.0466°
revolutions per day: 15.05175029
mean anomaly at epoch: 127.4350°
orbit number at epoch: 11539

The dashed part of the orbit path shows where the satellite is in the earth's shadow,  

DLR